Other Public Products
Issued by NWS Grand Forks, ND

Home | Current Version | Previous Version | Text Only | Print | Product List | Glossary On
Versions: 1 2 3 4 5 6 7 8 9 10 11 12 13 14 15 16 17 18 19 20 21 22 23 24 25 26 27 28 29 30 31 32 33 34 35 36 37 38 39 40 41 42 43 44 45 46 47 48 49 50
000
FPUS83 KFGF 172231
OPUFGF
PRAIRIE TO PINES WEATHER ROUNDUP
NATIONAL WEATHER SERVICE EASTERN NORTH DAKOTA/GRAND FORKS ND
400 PM CST TUE JAN 17 2017

 **SATELLITE DATA USED TO AUGMENT SKY COVER AT AUTOMATED STATIONS**
 *****  WEATHER ACROSS EASTERN NORTH DAKOTA  *****

CITY           SKY/WX    TMP DP  RH WIND       PRES   REMARKS
GRAND FORKS    FAIR      22  16  78 S16       29.80F WCI   8
GRAND FORKS AF FAIR      26  19  77 S13       29.78F WCI  14
GRAND CITY NWS NOT AVBL
BUXTON           N/A     21  19  91 S13         N/A  WCI   9
DEVILS LAKE    FAIR      27  19  72 SW14      29.71F WCI  16
FARGO          FAIR      26  20  77 S16       29.88F WCI  14
WAHPETON ARPT  FAIR      21  18  86 SE9       29.93F WCI  11
$$

 *****  WEATHER ACROSS CENTRAL AND WESTERN NORTH DAKOTA  *****

CITY           SKY/WX    TMP DP  RH WIND       PRES   REMARKS
JAMESTOWN      FAIR      30  20  66 SW15      29.80S WCI  19
BISMARCK       FAIR      33  18  53 SW3       29.80F
MINOT          FAIR      33  20  58 SW21      29.65S WCI  21
MINOT AFB      FAIR      31  20  64 SW22      29.64R WCI  18
GARRISON         N/A     30  21  69 S5        29.72S
WILLISTON      FAIR      29  20  69 SW15      29.70S WCI  18
DICKINSON      FAIR      30  21  69 SW14      29.74S WCI  19
HETTINGER      FAIR      32  20  61 W8        29.81S WCI  25
$$

 *****  OTHER OBSERVATIONS NORTHEAST NORTH DAKOTA  *****

CITY           SKY/WX    TMP DP  RH WIND       PRES   REMARKS
WALHALLA       NOT AVBL
LANGDON        NOT AVBL
CAVALIER         N/A     28  19  69 S14       29.70F WCI  17
GRAFTON        FAIR      19  18  93 S18       29.76F WCI   4
CANDO          NOT AVBL
FORT TOTTEN      N/A     29  19  66 S9        29.95S WCI  20
ROLLA            N/A    N/A N/A N/A MISG        N/A
RUGBY            N/A     25  19  80 SW12      29.67S WCI  14
 ***** THE ABOVE OBSERVATIONS ARE NON NWS ARE NOT QUALITY
        CONTROLLED AND MAY MIS-REPORT RAIN FOR SNOW...
$$

 *****  OTHER OBSERVATIONS SOUTHEAST NORTH DAKOTA *****

CITY           SKY/WX    TMP DP  RH WIND       PRES   REMARKS
COOPERSTOWN    FAIR      27  21  80 S16       29.78F WCI  14
VALLEY CITY    FLURRIES  27  25  93 SW15      29.84F WCI  15
OAKES          NOT AVBL
GWINNER        FAIR      23  18  80 SW16      29.89S WCI  10
SHEYENNE NWR     N/A     22  14  72 SW8       29.95S WCI  12
BUFFALO          N/A     26  18  72 S10         N/A  WCI  16
WYNDMERE         N/A     27  21  80 S7          N/A  WCI  19
 ***** THE ABOVE OBSERVATIONS ARE NON NWS ARE NOT QUALITY
       CONTROLLED AND MAY MIS-REPORT RAIN FOR SNOW...
$$

  *****  WEATHER ACROSS NORTHERN MINNESOTA  *****

CITY           SKY/WX    TMP DP  RH WIND       PRES   REMARKS
FLAG ISLAND    FAIR      16  12  86 S10       29.76F WCI   3
WARROAD        FAIR      28  21  74 SW10      29.77F WCI  19
ROSEAU         FAIR      25  19  80 S14       29.77F WCI  13
HALLOCK        FAIR      19  16  86 S20       29.75S WCI   4
THF RVR FALLS  FAIR      23  18  81 S16       29.83F WCI  10
HALSTAD          N/A     19  16  88 S18         N/A  WCI   3
FOSSTON        FAIR      21  16  79 S14       29.86F WCI   8
BAUDETTE       FAIR      27  16  63 S7        29.79S WCI  19
WASKISH        MOCLDY    19  14  79 W3        29.84R
CROOKSTON      FAIR      18  16  93 S16       29.84F WCI   3
$$
  *****  WEATHER ACROSS CENTRAL AND WEST MINNESOTA  *****

CITY           SKY/WX    TMP DP  RH WIND       PRES   REMARKS
BEMIDJI        FAIR      33  21  62 S6        29.85R
PARK RAPIDS    FAIR      24  15  68 S8        29.88S WCI  15
WADENA         FAIR      25  18  74 SW6       29.91F WCI  18
DETROIT LAKES  FAIR      25  19  80 S8        29.90S WCI  16
MOORHEAD       FAIR      19  16  86 S15       29.90F WCI   5
FERGUS FALLS   FAIR      18  14  86 S9        29.98F WCI   6
ELBOW LAKE     FAIR      19  17  91 E8        29.94S FOG     WCI   9
MORRIS MN      FAIR      21  18  86 S8        29.95S WCI  12
STAPLES        FAIR      28  16  59 SW6       29.93R WCI  22
WHEATON        FAIR      28  25  86 SE8       29.96S WCI  20
$$
  *****  WEATHER ELSEWHERE ACROSS MINNESOTA  *****

CITY           SKY/WX    TMP DP  RH WIND       PRES   REMARKS
DULUTH         FAIR      35  25  66 W5        29.89S
INTRNTL FALLS  FAIR      31  16  54 VRB7      29.81S WCI  24
ELY            FAIR      30  18  59 S6        29.84F WCI  24
CLOQUET        FAIR      37  21  52 SW5       29.90S
BRAINERD       FAIR      30  16  56 S8        29.92S WCI  22
HIBBING        FAIR      34  14  43 S5        29.86F
ALEXANDRIA     FAIR      22  15  75 SW7       29.94S WCI  13
SAINT CLOUD    CLOUDY    29  28  96 SW6       29.96F WCI  23
MINNEAPOLIS    CLOUDY    35  30  82 W9        29.98S
$$

  *****  WEATHER ACROSS SOUTH DAKOTA  *****

CITY           SKY/WX    TMP DP  RH WIND       PRES   REMARKS
SIOUX FALLS    FAIR      33  24  69 SW5       30.01R
BROOKINGS      FAIR      28  21  75 SW5       29.97S WCI  23
WATERTOWN      FAIR      20  16  84 S5        29.94S WCI  13
HURON          FAIR      30  21  69 SE8       29.95F WCI  22
SISSETON         N/A     33  24  69 SW6       29.91F
ABERDEEN       FAIR      20  13  74 S9        29.94S WCI   9
MITCHELL       FAIR      38  26  62 S7        29.99S
PIERRE         FAIR      25  17  72 CALM      29.91S
MOBRIDGE       FAIR      20  12  71 SE14      29.84F WCI   7
RAPID CITY     FAIR      33  22  63 CALM      29.87S
$$

  *****  SOME WEATHER IN NEARBY STATES *****

CITY           SKY/WX    TMP DP  RH WIND       PRES   REMARKS
GLASGOW MT     FAIR      31  23  72 E7        29.70S WCI  24
GREAT FALLS MT FAIR      39  24  55 S16       29.79R
CHEYENNE WY    FAIR      50   1  13 N12       29.98R
SCOTTSBLUFF NE FAIR      48  20  32 N3        29.97R
OMAHA NE       FAIR      33  27  78 CALM      30.09R
DES MOINES IA  CLOUDY    36  33  89 W9        30.05R
DAVENPORT IA   CLOUDY    35  33  92 W14       29.98R FOG
CHICAGO IL     CLOUDY    37  35  92 W13       29.90R
EAU CLAIRE WI  CLOUDY    36  35  96 W5        29.93R
LA CROSSE WI   MIX PCPN  36  33  89 NW9       29.94R FOG
$$

  *****  SOME NATIONAL WEATHER *****

CITY           SKY/WX    TMP DP  RH WIND       PRES   REMARKS
LA GUARDIA NY  CLOUDY    40  37  89 NE10      30.09F FOG
RALEIGH NC     LGT RAIN  59  56  89 S8        30.10F
ATLANTA GA     MOCLDY    72  56  57 SW12      30.14R
NEW ORLEANS LA PTSUNNY   77  63  61 S10       30.11S
OKLAHOMA CITY  FAIR      54  27  35 NE5       30.12R
ALBUQUERQUE NM PTSUNNY   49  34  56 W7        30.09S
SALT LAKE CITY FAIR      30  21  69 NW8       30.24S WCI  22
LOS ANGELES CA FAIR      63  45  51 SW9       30.09S
BOISE ID       FAIR      14   6  70 SW7       30.24F HAZE    WCI   4
SEATTLE WA     RAIN      44  41  89 VRB6      29.67F FOG
$$

*** WEATHER ACROSS MANITOBA...SASKATCHEWAN AND ONTARIO ***
                ***ONTARIO***

CITY           SKY/WX    TMP DP  RH WIND       PRES   REMARKS
GERALDTON      MOCLDY    30  25  80 S7        29.82F WCI  23
THUNDER BAY    MOCLDY    30  27  86 E3        29.89S
SIOUX LOOKOUT  CLOUDY    28  21  74 S6        29.73F WCI  22
TORONTO        DRIZZLE   36  34  93 E9G18     29.81S FOG
BIG TROUT LK   CLOUDY    27  21  80 S9        29.48F WCI  17
PICKLE LAKE    CLOUDY    27  19  74 S14G20    29.65F WCI  15
DRYDEN         CLOUDY    28  19  69 S10G17    29.73F WCI  19
KENORA         CLOUDY    25  18  74 S10G18    29.73F WCI  15
$$
                *** MANITOBA***

CITY           SKY/WX    TMP DP  RH WIND       PRES   REMARKS
BRANDON        MOCLDY    27  19  74 W22       29.54F WCI  12
DAUPHIN        PTCLDY    32  21  64 SW21G28   29.43F WCI  20
ISLAND LAKE    MOCLDY    36  23  60 SW17G26   29.30F
PILOT MOUND      N/A     25  18  74 SW24        N/A  WCI   9
THE PAS        MOCLDY    37  25  60 W9        29.32R
THOMPSON       MOCLDY    34  25  69 SW14      29.17R WCI  24
WINNIPEG       MOCLDY    21  16  79 S25G32    29.63F WCI   4
LYNN LAKE      CLEAR     34  32  93 W9        29.14R
CHURCHILL      LGT SNOW  32  32 100 SW10      28.99F VSB 1   WCI  24
GILLAM         MOCLDY    34  25  69 SW16G24   29.10R WCI  23
$$
                ***SASKATCHEWAN***

CITY           SKY/WX    TMP DP  RH WIND       PRES   REMARKS
ESTEVAN        MOCLDY    28  23  80 SW17      29.60S WCI  16
KINDERSLEY     PTSUNNY   37  32  81 S13       29.47F
LLOYDMINSTER   MOCLDY    43  32  65 SW10      29.38F
PRINCE ALBERT  MOCLDY    37  28  70 W3        29.40R
REGINA         MOCLDY    39  32  75 W12G18    29.52R
YORKTON        CLEAR     32  27  80 SW12      29.45S WCC1F1C2F2C3F3C4F4C5F5C6F6C7F7C8F8C9F9CaFaCbFbCcFcCdFdCe!



USA.gov is the U.S. government's official web portal to all federal, state and local government web resources and services.